TimeMDT,TemperatureF,Dew PointF,Humidity,Sea Level PressureIn,VisibilityMPH,Wind Direction,Wind SpeedMPH,Gust SpeedMPH,PrecipitationIn,Events,Conditions,WindDirDegrees,DateUTC
12:15 AM,57.2,23.0,27,29.87,10.0,SE,4.6,-,N/A,,Clear,140,2012-10-24 06:15:00
12:35 AM,57.2,23.0,27,29.87,10.0,SE,5.8,-,N/A,,Clear,130,2012-10-24 06:35:00
12:55 AM,57.2,23.0,27,29.86,10.0,ESE,8.1,-,N/A,,Clear,120,2012-10-24 06:55:00
1:15 AM,55.4,23.0,29,29.86,10.0,ESE,6.9,-,N/A,,Clear,120,2012-10-24 07:15:00
1:35 AM,55.4,24.8,31,29.86,10.0,ESE,5.8,-,N/A,,Clear,120,2012-10-24 07:35:00
1:55 AM,55.4,26.6,33,29.86,10.0,SE,9.2,-,N/A,,Clear,140,2012-10-24 07:55:00
2:35 AM,57.2,28.4,33,29.86,10.0,South,11.5,-,N/A,,Clear,170,2012-10-24 08:35:00
2:55 AM,55.4,28.4,36,29.86,10.0,SSE,11.5,-,N/A,,Clear,150,2012-10-24 08:55:00
3:15 AM,55.4,28.4,36,29.87,10.0,South,8.1,-,N/A,,Clear,170,2012-10-24 09:15:00
3:35 AM,55.4,28.4,36,29.86,10.0,SSW,4.6,-,N/A,,Clear,200,2012-10-24 09:35:00
3:55 AM,53.6,28.4,38,29.86,10.0,SE,12.7,-,N/A,,Clear,140,2012-10-24 09:55:00
4:15 AM,53.6,28.4,38,29.86,10.0,SE,11.5,-,N/A,,Clear,140,2012-10-24 10:15:00
4:35 AM,53.6,28.4,38,29.86,10.0,NW,4.6,-,N/A,,Clear,310,2012-10-24 10:35:00
4:55 AM,53.6,28.4,38,29.86,10.0,NNE,3.5,-,N/A,,Clear,30,2012-10-24 10:55:00
5:15 AM,51.8,28.4,41,29.86,10.0,ESE,3.5,-,N/A,,Clear,120,2012-10-24 11:15:00
5:35 AM,53.6,28.4,38,29.86,10.0,SE,3.5,-,N/A,,Clear,130,2012-10-24 11:35:00
5:55 AM,53.6,26.6,35,29.87,10.0,East,5.8,-,N/A,,Clear,80,2012-10-24 11:55:00
6:35 AM,51.8,26.6,38,29.88,10.0,West,3.5,-,N/A,,Clear,280,2012-10-24 12:35:00
7:15 AM,50.0,28.4,43,29.89,10.0,East,4.6,-,N/A,,Mostly Cloudy,90,2012-10-24 13:15:00
7:55 AM,51.8,26.6,38,29.90,10.0,SE,4.6,-,N/A,,Mostly Cloudy,140,2012-10-24 13:55:00
8:15 AM,51.8,26.6,38,29.90,10.0,South,3.5,-,N/A,,Mostly Cloudy,190,2012-10-24 14:15:00
8:35 AM,51.8,26.6,38,29.91,10.0,Calm,Calm,-,N/A,,Partly Cloudy,0,2012-10-24 14:35:00
8:55 AM,51.8,26.6,38,29.92,10.0,SSW,3.5,-,N/A,,Clear,210,2012-10-24 14:55:00
9:15 AM,53.6,26.6,35,29.94,10.0,Calm,Calm,-,N/A,,Clear,0,2012-10-24 15:15:00
9:35 AM,55.4,28.4,36,29.94,10.0,Calm,Calm,-,N/A,,Clear,0,2012-10-24 15:35:00
9:55 AM,55.4,28.4,36,29.96,10.0,Calm,Calm,-,N/A,,Clear,0,2012-10-24 15:55:00
10:15 AM,57.2,28.4,33,29.96,10.0,Calm,Calm,-,N/A,,Clear,0,2012-10-24 16:15:00
10:35 AM,57.2,30.2,36,29.96,10.0,West,3.5,-,N/A,,Clear,260,2012-10-24 16:35:00
10:55 AM,59.0,30.2,34,29.96,10.0,WNW,4.6,-,N/A,,Clear,300,2012-10-24 16:55:00
11:15 AM,60.8,30.2,31,29.96,10.0,West,10.4,-,N/A,,Clear,280,2012-10-24 17:15:00
11:35 AM,62.6,30.2,30,29.96,10.0,West,12.7,18.4,N/A,,Clear,260,2012-10-24 17:35:00
11:55 AM,62.6,30.2,30,29.96,10.0,West,12.7,23.0,N/A,,Clear,270,2012-10-24 17:55:00
12:15 PM,62.6,28.4,27,29.96,10.0,West,17.3,23.0,N/A,,Clear,280,2012-10-24 18:15:00
12:35 PM,62.6,28.4,27,29.97,10.0,West,11.5,-,N/A,,Clear,260,2012-10-24 18:35:00
12:55 PM,62.6,28.4,27,29.96,10.0,West,12.7,-,N/A,,Clear,270,2012-10-24 18:55:00
1:15 PM,64.4,28.4,26,29.96,10.0,West,12.7,20.7,N/A,,Clear,260,2012-10-24 19:15:00
1:35 PM,64.4,28.4,26,29.95,10.0,WSW,15.0,19.6,N/A,,Clear,240,2012-10-24 19:35:00
1:55 PM,64.4,28.4,26,29.94,10.0,West,12.7,19.6,N/A,,Clear,260,2012-10-24 19:55:00
2:15 PM,66.2,28.4,24,29.94,10.0,WSW,19.6,23.0,N/A,,Clear,250,2012-10-24 20:15:00
2:35 PM,64.4,28.4,26,29.94,10.0,West,19.6,26.5,N/A,,Clear,260,2012-10-24 20:35:00
3:35 PM,66.2,26.6,23,29.93,10.0,WSW,17.3,23.0,N/A,,Clear,250,2012-10-24 21:35:00
3:55 PM,66.2,24.8,21,29.93,10.0,WSW,17.3,23.0,N/A,,Clear,250,2012-10-24 21:55:00
4:35 PM,66.2,23.0,19,29.94,10.0,SW,17.3,20.7,N/A,,Partly Cloudy,230,2012-10-24 22:35:00
5:15 PM,66.2,21.2,18,29.95,10.0,WSW,17.3,26.5,N/A,,Partly Cloudy,250,2012-10-24 23:15:00
5:35 PM,66.2,19.4,17,29.95,10.0,West,10.4,-,N/A,,Clear,260,2012-10-24 23:35:00
5:55 PM,66.2,19.4,17,29.95,10.0,SW,13.8,-,N/A,,Clear,230,2012-10-24 23:55:00
6:15 PM,66.2,17.6,15,29.95,10.0,West,15.0,18.4,N/A,,Partly Cloudy,260,2012-10-25 00:15:00
6:35 PM,64.4,15.8,15,29.95,10.0,West,18.4,21.9,N/A,,Clear,260,2012-10-25 00:35:00
6:55 PM,64.4,15.8,15,29.97,10.0,WSW,12.7,-,N/A,,Partly Cloudy,250,2012-10-25 00:55:00
7:15 PM,62.6,17.6,18,29.98,10.0,WSW,12.7,-,N/A,,Partly Cloudy,240,2012-10-25 01:15:00
7:35 PM,62.6,19.4,19,29.99,10.0,WSW,10.4,-,N/A,,Clear,240,2012-10-25 01:35:00
7:55 PM,60.8,19.4,20,30.00,10.0,WSW,11.5,-,N/A,,Clear,240,2012-10-25 01:55:00
8:15 PM,60.8,19.4,20,30.01,10.0,WSW,8.1,-,N/A,,Clear,240,2012-10-25 02:15:00
8:35 PM,57.2,19.4,23,30.01,10.0,SW,8.1,-,N/A,,Clear,230,2012-10-25 02:35:00
9:15 PM,57.2,24.8,29,30.04,10.0,NE,5.8,-,N/A,,Clear,50,2012-10-25 03:15:00
9:35 PM,55.4,26.6,33,30.04,10.0,ENE,11.5,-,N/A,,Clear,60,2012-10-25 03:35:00
9:55 PM,55.4,26.6,33,30.05,10.0,NE,13.8,19.6,N/A,,Clear,50,2012-10-25 03:55:00
10:15 PM,55.4,24.8,31,30.06,10.0,NE,9.2,-,N/A,,Clear,40,2012-10-25 04:15:00
10:35 PM,55.4,24.8,31,30.06,10.0,NNE,8.1,16.1,N/A,,Clear,30,2012-10-25 04:35:00
10:55 PM,55.4,24.8,31,30.07,10.0,NNE,5.8,-,N/A,,Clear,30,2012-10-25 04:55:00
11:16 PM,55.4,24.8,31,30.08,10.0,Calm,Calm,-,N/A,,Clear,0,2012-10-25 05:16:00
11:35 PM,53.6,24.8,33,30.09,10.0,NNE,5.8,-,N/A,,Clear,20,2012-10-25 05:35:00
11:55 PM,51.8,24.8,35,30.10,10.0,NE,3.5,-,N/A,,Clear,50,2012-10-25 05:55:00